[[{"header":{"parameterUnit":"m.s-1","parameterCategory":2,"la1":30.2991,"la2":30.254,"lo1":-89.0895,"lo2":-89.0444,"dy":0.0017,"dx":0.0017,"nx":28,"ny":28,"refTime":"2025-09-14T09:00:00:Z","depth":"0","parameterNumber":2,"parameterNumberName":"U-component_of_CURRENTS"},"data":[0,0,0,0,0,0,0,0,0,0,0,0,0,0,0,0,0,0,0,0,0,0,0,0,0,0,0,0,0,0,0,0,0,0,0,0,0,0,0,0,0,0,0,0,0,0,0,0,0,0,0,0,0,0,0,0,0,0,0.4119,0.4119,0,0.4155,0.4155,0.4155,0.4191,0.4191,0.4192,0.4192,0.4228,0.4229,0.4229,0,0,0,0,0,0,0,0,0,0,0,0,0,0.4121,0.4121,0.4119,0.4119,0.4119,0.4154,0.4155,0.4155,0.4191,0.4191,0.4192,0.4192,0.4228,0.4229,0.4229,0,0,0,0,0,0,0,0,0,0,0,0,0,0.4134,0.412,0.4118,0.4142,0.4144,0.4154,0.4155,0.4155,0.419,0.4191,0.4192,0.4193,0.4228,0.4229,0.4229,0.4219,0,0,0.4232,0.4232,0,0,0,0,0,0,0,0,0.4133,0.4134,0.4138,0.414,0.4143,0.4169,0.4169,0.4177,0.419,0.4172,0.4192,0.4193,0.4208,0.4211,0.4215,0.4221,0.4223,0.4232,0.4232,0.4233,0.4233,0,0,0,0,0,0,0,0.4132,0.4133,0.4132,0.4138,0.4141,0.4164,0.4166,0.4171,0.4185,0.4174,0.4177,0.4181,0.421,0.4214,0.4216,0.4223,0.4232,0.4232,0.4233,0.4233,0.4278,0.4279,0,0,0,0,0,0,0.4126,0.4132,0.4131,0.4134,0.414,0.4163,0.4166,0.416,0.4186,0.419,0.418,0.4183,0.4213,0.4215,0.4218,0.4265,0.4233,0.4233,0.4234,0.4278,0.4278,0.4279,0,0,0,0,0,0,0.4125,0.4125,0.413,0.4135,0.4137,0.4162,0.4155,0.416,0.4176,0.419,0.4195,0.4193,0.4214,0.4217,0.424,0.4265,0.4234,0.4234,0.4277,0.4278,0.4279,0.4323,0,0,0,0,0,0,0.4125,0.4124,0.4123,0.4134,0.4136,0.415,0.4155,0.416,0.4177,0.418,0.4202,0.4206,0.4214,0.4239,0.4241,0.4265,0.4235,0.4276,0.4277,0.4279,0.4321,0.4325,0.433,0,0,0,0,0,0.4125,0.4128,0.4122,0.4123,0.4131,0.4151,0.4155,0.4175,0.4177,0.419,0.4206,0.4206,0.4249,0.424,0.4242,0.4267,0.4275,0.4277,0.4278,0.4319,0.4324,0.4329,0,0,0,0,0,0,0.4136,0.4132,0.4126,0.4129,0.4142,0.4157,0.4175,0.4177,0.4199,0.4203,0.4213,0.4218,0.4247,0.4247,0.4236,0.4284,0.4263,0.4265,0.4292,0.4298,0.4303,0.4284,0.4236,0,0,0,0,0,0.4132,0.4129,0.4134,0.4136,0.4145,0.4156,0.4167,0.4176,0.4193,0.4204,0.421,0.4226,0.4252,0.4267,0.4278,0.4302,0.4353,0.432,0.4324,0.4328,0.4315,0.4433,0.4448,0.4285,0.4285,0.4285,0,0,0.4136,0.4134,0.4133,0.4138,0.415,0.4167,0.4166,0.4186,0.42,0.4202,0.4224,0.4237,0.4259,0.4292,0.4305,0.4299,0.4408,0.433,0.4334,0.4317,0.4436,0.4452,0.4467,0.4286,0.4286,0.4286,0,0,0.4156,0.4143,0.4155,0.4166,0.4182,0.4182,0.4188,0.4199,0.421,0.4223,0.424,0.4265,0.4283,0.4316,0.4334,0.4366,0.4423,0.4374,0.4391,0.4507,0.4522,0.4536,0.4655,0.4678,0.4384,0.4384,0.4384,0,0.4168,0.4174,0.4165,0.4187,0.4207,0.4189,0.4221,0.422,0.4234,0.4257,0.4234,0.4289,0.4295,0.4367,0.437,0.4377,0.4458,0.4373,0.4516,0.453,0.4544,0.4662,0.4688,0.4386,0.4386,0.4386,0.4385,0,0.4198,0.421,0.4223,0.4235,0.4254,0.4274,0.4276,0.4284,0.4277,0.4283,0.4329,0.4334,0.4381,0.4383,0.4378,0.4477,0.4512,0.4509,0.4508,0.4563,0.4684,0.471,0.4389,0.4389,0.4388,0.4387,0,0,0.4198,0.4239,0.424,0.4271,0.4284,0.4305,0.4326,0.4356,0.4404,0.4373,0.4456,0.4438,0.4445,0.4463,0.4476,0.454,0.4697,0.4558,0.4563,0.4684,0.4983,0.489,0.491,0.4741,0.4745,0.4748,0.5042,0,0.4227,0.4287,0.4292,0.4344,0.4382,0.4385,0.4419,0.4442,0.4461,0.4528,0.452,0.4582,0.448,0.4531,0.4574,0.4676,0.4762,0.4618,0.49,0.4908,0.4827,0.4935,0.4647,0.4874,0.5068,0.5072,0.5076,0,0.4244,0.4289,0.4358,0.443,0.4449,0.4469,0.4548,0.4577,0.4648,0.4676,0.4711,0.4726,0.4792,0.4716,0.4878,0.4804,0.4887,0.4941,0.4956,0.4861,0.4862,0.4842,0.4914,0.478,0.5116,0.5113,0.511,0,0.4261,0.4326,0.4388,0.441,0.4485,0.4521,0.4552,0.4622,0.4676,0.4786,0.4856,0.4917,0.4989,0.5064,0.5103,0.5043,0.5313,0.5267,0.5262,0.5259,0.5057,0.5027,0.5026,0.5413,0.5412,0.5411,0.541,0,0.4287,0.4331,0.4398,0.4438,0.4518,0.4558,0.465,0.47,0.4805,0.4887,0.4931,0.5018,0.5081,0.5206,0.5228,0.532,0.5426,0.5285,0.5332,0.5065,0.5034,0.4937,0.4897,0.5422,0.542,0.5418,0.5416,0,0.4299,0.4338,0.4421,0.4511,0.4531,0.4592,0.4682,0.4747,0.485,0.4978,0.5019,0.5158,0.5304,0.5371,0.5552,0.5491,0.5433,0.5604,0.5276,0.5274,0.5064,0.5036,0.4947,0.4809,0.5651,0.565,0.565,0,0.4309,0.4355,0.4468,0.4505,0.4541,0.4617,0.466,0.4754,0.482,0.5031,0.5095,0.5294,0.5376,0.5599,0.5548,0.5624,0.5468,0.5418,0.5203,0.5027,0.5036,0.4851,0.4727,0.4991,0.4985,0.4981,0.4977,0,0.4342,0.4385,0.4464,0.4531,0.4577,0.463,0.4697,0.4752,0.4868,0.4978,0.5132,0.5232,0.5404,0.5318,0.5405,0.5396,0.5114,0.5322,0.5231,0.4585,0.4296,0.4192,0.4847,0.4934,0.4939,0.4942,0.4944,0.4946,0.4359,0.4419,0.4496,0.4537,0.4578,0.4588,0.4569,0.4656,0.4731,0.4788,0.5013,0.5029,0.5055,0.5096,0.5086,0.484,0.4869,0.4641,0.4659,0.4516,0.4231,0.4786,0.4853,0.4857,0.486,0.4863,0.4865,0,0.4348,0.4404,0.4472,0.4491,0.4446,0.4497,0.4528,0.4453,0.4449,0.4575,0.4642,0.4569,0.4508,0.4511,0.4342,0.4171,0.3972,0.4073,0.3731,0.3672,0.4252,0.4063,0.3847,0.3848,0.3848,0.3848,0.3848,0.3848,0.4349,0.4385,0.4404,0.4306,0.4291,0.4148,0.4111,0.4055,0.4073,0.3966,0.3872,0.3907,0.4016,0.4015,0.3812,0.3713,0.3444,0.3264,0.3357,0.3744,0.3795,0.3844,0.3654,0.3356,0.3355,0.2524,0.2518,0.2514]},{"header":{"parameterUnit":"m.s-1","parameterCategory":2,"la1":30.2991,"la2":30.254,"lo1":-89.0895,"lo2":-89.0444,"dy":0.0017,"dx":0.0017,"nx":28,"ny":28,"refTime":"2025-09-14T09:00:00:Z","depth":"0","parameterNumber":3,"parameterNumberName":"V-component_of_CURRENTS"},"data":[0,0,0,0,0,0,0,0,0,0,0,0,0,0,0,0,0,0,0,0,0,0,0,0,0,0,0,0,0,0,0,0,0,0,0,0,0,0,0,0,0,0,0,0,0,0,0,0,0,0,0,0,0,0,0,0,0,0,-0.0039,-0.004,0,-0.0093,-0.0094,-0.0094,-0.0147,-0.0148,-0.0148,-0.0149,-0.0264,-0.0267,-0.027,0,0,0,0,0,0,0,0,0,0,0,0,0,-0.0032,-0.0032,-0.0039,-0.004,-0.004,-0.0093,-0.0094,-0.0095,-0.0147,-0.0148,-0.0148,-0.0149,-0.0264,-0.0267,-0.027,0,0,0,0,0,0,0,0,0,0,0,0,0,-0.0058,-0.0032,-0.0039,-0.0071,-0.0074,-0.0092,-0.0094,-0.0095,-0.0147,-0.0148,-0.0149,-0.0149,-0.0262,-0.0266,-0.027,-0.0282,0,0,-0.0283,-0.0284,0,0,0,0,0,0,0,0,-0.0056,-0.0058,-0.0066,-0.0068,-0.0072,-0.0112,-0.0133,-0.016,-0.0147,-0.0122,-0.0149,-0.015,-0.0217,-0.0224,-0.0236,-0.0287,-0.0292,-0.0283,-0.0285,-0.0287,-0.0288,0,0,0,0,0,0,0,-0.0054,-0.0057,-0.0063,-0.0066,-0.007,-0.0099,-0.0103,-0.0139,-0.0169,-0.0125,-0.0128,-0.0129,-0.0219,-0.0232,-0.024,-0.0294,-0.0283,-0.0286,-0.0289,-0.029,-0.0347,-0.0347,0,0,0,0,0,0,-0.0038,-0.0054,-0.0062,-0.0065,-0.0062,-0.0098,-0.0103,-0.0101,-0.0167,-0.0176,-0.0128,-0.0131,-0.0225,-0.0235,-0.0244,-0.0226,-0.0287,-0.0291,-0.0293,-0.0348,-0.0347,-0.0346,0,0,0,0,0,0,-0.0038,-0.0038,-0.0059,-0.0059,-0.0063,-0.0097,-0.0094,-0.0101,-0.011,-0.0169,-0.018,-0.0129,-0.0226,-0.0238,-0.0263,-0.0233,-0.0293,-0.0296,-0.0349,-0.0348,-0.0347,-0.0214,0,0,0,0,0,0,-0.0038,-0.0038,-0.0034,-0.0057,-0.0063,-0.0055,-0.0093,-0.0102,-0.0108,-0.0113,-0.0173,-0.0184,-0.0227,-0.0257,-0.0267,-0.0239,-0.0299,-0.0351,-0.0349,-0.0347,-0.0219,-0.0208,-0.0199,0,0,0,0,0,-0.0037,-0.0025,-0.0034,-0.0035,-0.0055,-0.0054,-0.0058,-0.0087,-0.0107,-0.01,-0.0142,-0.0182,-0.0254,-0.0259,-0.0272,-0.0244,-0.0351,-0.0349,-0.0347,-0.0224,-0.021,-0.0199,0,0,0,0,0,0,-0.002,-0.003,-0.004,-0.0032,-0.0035,-0.0061,-0.0062,-0.0078,-0.0105,-0.0115,-0.0173,-0.0186,-0.0201,-0.0242,-0.0246,-0.0257,-0.0309,-0.0309,-0.0211,-0.0199,-0.0188,-0.0155,-0.0303,0,0,0,0,0,-0.0012,-0.0006,-0.0017,-0.0008,-0.0009,-0.0033,-0.0038,-0.0053,-0.0077,-0.009,-0.0129,-0.0172,-0.0202,-0.0215,-0.0256,-0.0257,-0.0267,-0.0249,-0.0239,-0.0229,-0.0211,-0.0197,-0.0182,-0.034,-0.034,-0.034,0,0,-0.0005,-0.0007,-0.0006,-0.0004,-0.0015,0.0009,-0.0038,-0.0036,-0.0014,-0.0099,-0.0091,-0.0143,-0.0198,-0.0202,-0.0211,-0.0229,-0.0186,-0.0227,-0.0218,-0.0205,-0.0193,-0.0177,-0.0163,-0.0338,-0.0339,-0.0339,0,0,0.003,0.0014,0.0037,0.0044,0.0043,0.0036,0.0044,0.0027,0.0019,0.0018,-0.0035,-0.0057,-0.011,-0.0127,-0.0146,-0.0102,-0.0139,-0.0126,-0.0035,-0.002,-0.0006,0.0006,0.0036,0.0049,-0.0111,-0.011,-0.011,0,0.0039,0.0071,0.0045,0.0078,0.0092,0.0058,0.0098,0.0093,0.0072,0.0076,0.0035,-0.0012,-0.0066,-0.0045,-0.0037,-0.0074,-0.0072,-0.0073,-0.0002,0.0009,0.0019,0.0046,0.006,-0.0104,-0.0104,-0.0105,-0.0106,0,0.0101,0.0126,0.0141,0.0176,0.0188,0.0212,0.0211,0.022,0.0199,0.0191,0.0191,0.0127,0.0099,0.0082,0.0032,0.008,0.0056,0.0005,-0.0025,0.0044,0.0067,0.0079,-0.0094,-0.0097,-0.0099,-0.01,0,0,0.012,0.0174,0.018,0.0214,0.024,0.0258,0.0303,0.0333,0.0364,0.0337,0.038,0.0325,0.0279,0.0254,0.0196,0.0212,0.0279,0.0145,0.0143,0.0194,0.0329,0.0284,0.0292,0.0239,0.0242,0.0243,0.0326,0,0.0176,0.0258,0.0272,0.035,0.0389,0.0388,0.0437,0.0457,0.0451,0.0481,0.0441,0.0443,0.035,0.0337,0.0338,0.0284,0.0311,0.0262,0.0239,0.0239,0.0206,0.0304,0.0269,0.0336,0.0337,0.0339,0.034,0,0.0235,0.0281,0.0366,0.044,0.0457,0.0501,0.0562,0.0599,0.0633,0.0628,0.0629,0.0586,0.0601,0.0505,0.0492,0.0462,0.041,0.0376,0.0377,0.0297,0.0215,0.0261,0.0357,0.0161,0.0357,0.0356,0.0355,0,0.0255,0.0348,0.0417,0.0442,0.0518,0.0559,0.0598,0.064,0.0687,0.0725,0.0765,0.0747,0.0762,0.0697,0.0607,0.0553,0.0603,0.0514,0.044,0.0437,0.0384,0.0371,0.0302,0.0526,0.0526,0.0526,0.0525,0,0.0304,0.0357,0.0433,0.0465,0.0549,0.0593,0.0676,0.0707,0.0784,0.0879,0.0835,0.0919,0.081,0.0811,0.0693,0.0623,0.0671,0.0491,0.0465,0.0428,0.0419,0.0223,0.0101,0.0529,0.0528,0.0527,0.0527,0,0.0306,0.036,0.0432,0.0521,0.0556,0.0606,0.0724,0.0801,0.0859,0.0989,0.1019,0.1075,0.109,0.0982,0.0913,0.0756,0.0559,0.0635,0.0607,0.0575,0.0272,0.0159,0.0064,-0.0024,0.0561,0.0561,0.0561,0,0.032,0.0359,0.045,0.0508,0.0549,0.064,0.0729,0.0815,0.0918,0.1104,0.1194,0.1262,0.1362,0.1243,0.0991,0.0816,0.0604,0.0614,0.0485,0.0285,0.014,0.0048,-0.0026,0.0482,0.0481,0.048,0.048,0,0.0334,0.0357,0.041,0.0529,0.0623,0.0739,0.0876,0.0971,0.1126,0.1281,0.1519,0.163,0.1529,0.1362,0.1071,0.09,0.0436,0.0588,0.0392,0.0094,-0.0019,-0.0126,0.0404,0.0472,0.0473,0.0473,0.0474,0.0474,0.0339,0.037,0.0457,0.0576,0.0694,0.087,0.0992,0.1179,0.1397,0.1693,0.1766,0.2006,0.167,0.1293,0.1001,0.0401,0.0414,0.0193,0.0088,0.0026,-0.0113,0.0407,0.0421,0.0421,0.0422,0.0422,0.0422,0,0.0374,0.0433,0.0529,0.0686,0.0847,0.0904,0.1137,0.1302,0.1607,0.1895,0.2142,0.214,0.1693,0.1189,0.0386,-0.0026,-0.019,-0.0257,-0.0405,-0.0446,0.0037,-0.0025,-0.0123,-0.0123,-0.0122,-0.0122,-0.0122,-0.0122,0.0404,0.0499,0.056,0.0824,0.095,0.1191,0.1341,0.1585,0.1827,0.2199,0.2391,0.251,0.2111,0.0674,-0.0282,-0.0497,-0.0798,-0.0869,-0.0981,-0.0687,-0.0654,-0.0623,-0.0709,-0.0948,-0.0949,-0.1433,-0.1438,-0.1442]}],[{"header":{"parameterUnit":"m.s-1","parameterCategory":2,"la1":30.2991,"la2":30.254,"lo1":-89.0895,"lo2":-89.0444,"dy":0.0017,"dx":0.0017,"nx":28,"ny":28,"refTime":"2025-09-14T09:00:00:Z","depth":"2","parameterNumber":2,"parameterNumberName":"U-component_of_CURRENTS"},"data":[0,0,0,0,0,0,0,0,0,0,0,0,0,0,0,0,0,0,0,0,0,0,0,0,0,0,0,0,0,0,0,0,0,0,0,0,0,0,0,0,0,0,0,0,0,0,0,0,0,0,0,0,0,0,0,0,0,0,0.2807,0.2808,0,0.2861,0.2861,0.2861,0.2883,0.2883,0.2884,0.2884,0.2925,0.2925,0.2926,0,0,0,0,0,0,0,0,0,0,0,0,0,0.2764,0.2764,0.2807,0.2808,0.2809,0.2861,0.2861,0.2861,0.2883,0.2883,0.2884,0.2884,0.2925,0.2925,0.2926,0,0,0,0,0,0,0,0,0,0,0,0,0,0.279,0.2764,0.2807,0.2832,0.2835,0.2861,0.2861,0.2861,0.2882,0.2883,0.2884,0.2885,0.2924,0.2925,0.2926,0.2917,0,0,0.2929,0.2929,0,0,0,0,0,0,0,0,0.2789,0.2791,0.2827,0.283,0.2834,0.2872,0.2862,0.2882,0.2882,0.2857,0.2884,0.2885,0.291,0.2912,0.2911,0.2919,0.292,0.2929,0.293,0.293,0.293,0,0,0,0,0,0,0,0.2787,0.2789,0.2821,0.2828,0.2833,0.2855,0.2858,0.2865,0.2873,0.2859,0.2863,0.288,0.2911,0.291,0.2912,0.2921,0.2929,0.293,0.293,0.2931,0.2997,0.2998,0,0,0,0,0,0,0.2791,0.2787,0.282,0.2824,0.2821,0.2856,0.2859,0.2853,0.2873,0.2879,0.2879,0.2881,0.2908,0.2911,0.2914,0.2985,0.293,0.2931,0.2931,0.2996,0.2997,0.2998,0,0,0,0,0,0,0.2789,0.2792,0.2818,0.2814,0.2819,0.2856,0.2849,0.2854,0.2874,0.289,0.2894,0.2897,0.2909,0.2912,0.2943,0.2984,0.2931,0.2932,0.2994,0.2996,0.2998,0.3076,0,0,0,0,0,0,0.2787,0.2791,0.2797,0.2813,0.282,0.2851,0.2849,0.2855,0.2886,0.2888,0.2906,0.291,0.2909,0.2941,0.2944,0.2984,0.2933,0.2993,0.2995,0.2997,0.3072,0.308,0.3087,0,0,0,0,0,0.2785,0.279,0.2796,0.2801,0.2823,0.2853,0.2858,0.2883,0.2886,0.29,0.2915,0.291,0.2957,0.2943,0.2945,0.2987,0.2992,0.2994,0.2997,0.3068,0.3079,0.3087,0,0,0,0,0,0,0.2779,0.2793,0.28,0.281,0.284,0.286,0.2875,0.2892,0.2912,0.2922,0.2922,0.2927,0.2976,0.2962,0.2946,0.3011,0.2975,0.2978,0.3029,0.3038,0.3046,0.3046,0.2934,0,0,0,0,0,0.278,0.2785,0.2808,0.2822,0.2829,0.2853,0.2872,0.2897,0.2917,0.2927,0.2939,0.2955,0.2984,0.2995,0.3014,0.304,0.3059,0.3068,0.3076,0.3083,0.3084,0.3157,0.3172,0.3007,0.3007,0.3007,0,0,0.2781,0.2795,0.2798,0.2823,0.2836,0.2866,0.2864,0.2903,0.2936,0.2928,0.2965,0.2988,0.2999,0.3042,0.3061,0.3037,0.3142,0.3086,0.3092,0.309,0.3162,0.3178,0.3193,0.3009,0.3009,0.3009,0,0,0.2793,0.2795,0.2803,0.2831,0.2875,0.2892,0.2908,0.2939,0.2955,0.2994,0.3011,0.3056,0.3072,0.3104,0.3118,0.3174,0.3189,0.3182,0.3216,0.3288,0.3302,0.3315,0.3375,0.3392,0.3177,0.3177,0.3177,0,0.2808,0.2804,0.2816,0.2845,0.2872,0.2904,0.2933,0.2958,0.3005,0.303,0.3015,0.3093,0.3103,0.3177,0.3197,0.3195,0.3232,0.3183,0.33,0.3313,0.3325,0.3383,0.3402,0.3181,0.3181,0.318,0.318,0,0.2822,0.2833,0.2841,0.2878,0.2919,0.2946,0.2991,0.3028,0.3048,0.3085,0.3156,0.3173,0.3227,0.3237,0.323,0.3329,0.3329,0.3312,0.3281,0.3347,0.3403,0.3421,0.3187,0.3186,0.3184,0.3183,0,0,0.282,0.284,0.2848,0.287,0.2935,0.2974,0.3028,0.3087,0.3139,0.318,0.325,0.3293,0.3326,0.3342,0.3358,0.3399,0.3519,0.339,0.3392,0.3456,0.3684,0.3571,0.358,0.3533,0.3536,0.3539,0.3694,0,0.2823,0.2853,0.2878,0.2937,0.2951,0.3011,0.3057,0.314,0.319,0.3271,0.3316,0.3397,0.3361,0.3411,0.3451,0.3516,0.3567,0.3478,0.3602,0.3605,0.3504,0.3597,0.3313,0.3417,0.3711,0.3714,0.3716,0,0.2827,0.2845,0.2872,0.2944,0.2959,0.3013,0.3115,0.3177,0.3298,0.3335,0.3429,0.3495,0.36,0.3546,0.3679,0.363,0.3664,0.3686,0.3692,0.3569,0.3526,0.3394,0.3438,0.3746,0.3744,0.3741,0.3739,0,0.2802,0.2854,0.2866,0.2892,0.2973,0.3015,0.3082,0.3199,0.326,0.3416,0.3492,0.3612,0.3703,0.3761,0.3816,0.3777,0.3942,0.39,0.3827,0.382,0.3589,0.3554,0.399,0.399,0.399,0.3989,0.3989,0,0.2777,0.2797,0.2852,0.2868,0.2912,0.301,0.3089,0.3167,0.3306,0.3397,0.3542,0.3633,0.3764,0.3876,0.3885,0.3917,0.4013,0.3855,0.386,0.3606,0.3574,0.3853,0.3834,0.3995,0.3994,0.3992,0.3992,0,0.2721,0.2745,0.2771,0.2855,0.289,0.2932,0.307,0.3154,0.3282,0.3415,0.3486,0.3704,0.3847,0.3946,0.4068,0.4012,0.4047,0.4029,0.3717,0.368,0.3862,0.3846,0.3981,0.3979,0.3977,0.3975,0.3974,0,0.2682,0.2686,0.2754,0.2797,0.2828,0.2908,0.2983,0.3108,0.3212,0.3427,0.3511,0.3725,0.3816,0.3969,0.3955,0.3984,0.4043,0.3712,0.3563,0.3874,0.3866,0.3853,0.3841,0.3306,0.3299,0.3294,0.3289,0,0.2611,0.263,0.2653,0.2749,0.2818,0.2861,0.2987,0.3031,0.3198,0.3288,0.3435,0.3529,0.3721,0.3642,0.3704,0.3667,0.3681,0.3596,0.4044,0.3332,0.3244,0.3233,0.3243,0.324,0.3245,0.3248,0.3251,0.3253,0.2566,0.255,0.2615,0.2696,0.2771,0.2801,0.2797,0.2925,0.297,0.3072,0.3251,0.3285,0.338,0.333,0.3241,0.3194,0.3432,0.3269,0.3284,0.3306,0.318,0.309,0.3034,0.3038,0.3041,0.3044,0.3046,0,0.2522,0.2521,0.2596,0.2649,0.2702,0.277,0.2805,0.2756,0.2733,0.2863,0.2928,0.273,0.2711,0.2805,0.2656,0.265,0.2604,0.2539,0.2455,0.2509,0.2556,0.2387,0.2035,0.2031,0.2027,0.2024,0,0,0.2471,0.2501,0.2526,0.2557,0.2628,0.2556,0.2518,0.2452,0.2461,0.2377,0.2382,0.2626,0.2738,0.2351,0.2308,0.2143,0.2301,0.2062,0.2887,0.2844,0.2886,0.3005,0.2811,0,0,0,0,0]},{"header":{"parameterUnit":"m.s-1","parameterCategory":2,"la1":30.2991,"la2":30.254,"lo1":-89.0895,"lo2":-89.0444,"dy":0.0017,"dx":0.0017,"nx":28,"ny":28,"refTime":"2025-09-14T09:00:00:Z","depth":"2","parameterNumber":3,"parameterNumberName":"V-component_of_CURRENTS"},"data":[0,0,0,0,0,0,0,0,0,0,0,0,0,0,0,0,0,0,0,0,0,0,0,0,0,0,0,0,0,0,0,0,0,0,0,0,0,0,0,0,0,0,0,0,0,0,0,0,0,0,0,0,0,0,0,0,0,0,0.0194,0.0194,0,0.0152,0.0152,0.0151,0.0118,0.0117,0.0117,0.0117,0.005,0.0049,0.0047,0,0,0,0,0,0,0,0,0,0,0,0,0,0.0193,0.0193,0.0194,0.0194,0.0193,0.0152,0.0152,0.0151,0.0118,0.0117,0.0117,0.0117,0.0051,0.0049,0.0047,0,0,0,0,0,0,0,0,0,0,0,0,0,0.0176,0.0194,0.0195,0.0172,0.017,0.0152,0.0152,0.0151,0.0118,0.0117,0.0117,0.0116,0.0051,0.0049,0.0047,0.0042,0,0,0.004,0.0039,0,0,0,0,0,0,0,0,0.0177,0.0176,0.0176,0.0174,0.0171,0.014,0.0127,0.0113,0.0118,0.0137,0.0117,0.0116,0.0079,0.0074,0.0067,0.0039,0.0036,0.004,0.0039,0.0038,0.0037,0,0,0,0,0,0,0,0.0178,0.0177,0.0177,0.0175,0.0172,0.0146,0.0144,0.0124,0.011,0.0135,0.0133,0.0129,0.0077,0.0069,0.0065,0.0035,0.004,0.0038,0.0037,0.0036,-0.0005,-0.0005,0,0,0,0,0,0,0.0188,0.0179,0.0179,0.0176,0.0174,0.0147,0.0144,0.015,0.0111,0.0105,0.0129,0.0128,0.0073,0.0068,0.0063,0.0063,0.0038,0.0036,0.0034,-0.0005,-0.0005,-0.0005,0,0,0,0,0,0,0.0188,0.0189,0.018,0.0176,0.0173,0.0148,0.0154,0.015,0.0145,0.0107,0.01,0.013,0.0073,0.0066,0.005,0.006,0.0035,0.0033,-0.0006,-0.0005,-0.0005,0.0058,0,0,0,0,0,0,0.0189,0.019,0.0195,0.0177,0.0174,0.0181,0.0155,0.0149,0.0143,0.014,0.0105,0.0098,0.0072,0.0053,0.0047,0.0056,0.0031,-0.0006,-0.0005,-0.0005,0.0056,0.0061,0.0065,0,0,0,0,0,0.0189,0.0202,0.0196,0.0195,0.0184,0.0182,0.0178,0.0157,0.0144,0.015,0.0121,0.0099,0.0052,0.0052,0.0045,0.0053,-0.0006,-0.0006,-0.0005,0.0054,0.006,0.0065,0,0,0,0,0,0,0.0199,0.02,0.0192,0.0203,0.0198,0.0177,0.0179,0.0164,0.0146,0.0139,0.0104,0.0096,0.0084,0.006,0.0061,0.0042,0.0019,0.0018,0.0066,0.0071,0.0076,0.01,0.0029,0,0,0,0,0,0.0207,0.0218,0.0211,0.0218,0.0221,0.0201,0.0196,0.0182,0.0164,0.0156,0.0132,0.0103,0.0081,0.007,0.0047,0.0039,0.0015,0.0039,0.0043,0.0047,0.0062,0.003,0.0033,-0.0003,-0.0003,-0.0003,0,0,0.021,0.0212,0.0217,0.0221,0.0215,0.0228,0.0198,0.0196,0.0202,0.0151,0.0152,0.0119,0.0082,0.0073,0.0065,0.0054,0.0044,0.0048,0.0052,0.0065,0.0031,0.0034,0.0037,-0.0002,-0.0002,-0.0003,0,0,0.0233,0.0231,0.0254,0.0256,0.0253,0.0244,0.0249,0.0235,0.0227,0.022,0.0184,0.0161,0.013,0.0107,0.0091,0.0107,0.0069,0.0095,0.014,0.0108,0.0111,0.0113,0.0086,0.0086,0.0098,0.0098,0.0098,0,0.0236,0.0267,0.0257,0.028,0.0289,0.0259,0.0286,0.0274,0.0252,0.0253,0.0229,0.0186,0.0149,0.0142,0.0142,0.0119,0.0095,0.0123,0.0115,0.0117,0.0118,0.009,0.0089,0.0101,0.0101,0.0101,0.01,0,0.0281,0.0302,0.0316,0.0341,0.0347,0.0362,0.0352,0.0352,0.0334,0.0318,0.0306,0.0255,0.0232,0.0211,0.018,0.0174,0.0152,0.0125,0.0105,0.0126,0.0094,0.0092,0.0106,0.0105,0.0104,0.0103,0,0,0.0302,0.0342,0.0347,0.0377,0.0382,0.0398,0.041,0.0421,0.0442,0.0399,0.0422,0.0362,0.0329,0.0309,0.0263,0.0232,0.021,0.0187,0.0184,0.0168,0.0143,0.0099,0.0091,0.0179,0.0179,0.0179,0.0118,0,0.0342,0.0406,0.0409,0.0466,0.0503,0.0488,0.0514,0.0512,0.0498,0.0509,0.0448,0.0448,0.0368,0.0364,0.0315,0.0246,0.0206,0.0229,0.012,0.0117,0.008,0.0088,0.0118,0.0064,0.0115,0.0115,0.0114,0,0.0392,0.043,0.0497,0.0555,0.0571,0.0596,0.0639,0.066,0.0653,0.0643,0.0611,0.0563,0.0517,0.0449,0.0327,0.0345,0.025,0.0185,0.018,0.0118,0.0067,0.005,0.0057,0.0109,0.011,0.011,0.0111,0,0.0433,0.0495,0.0555,0.0572,0.0625,0.0656,0.0689,0.07,0.0751,0.0736,0.0767,0.0674,0.0666,0.0526,0.037,0.0353,0.0237,0.0194,0.0062,0.0058,0.0053,0.0048,0.0105,0.0105,0.0105,0.0105,0.0105,0,0.0487,0.0536,0.0583,0.0618,0.0705,0.072,0.0812,0.0822,0.0872,0.0951,0.0849,0.0884,0.0687,0.059,0.0416,0.0235,0.0264,0.0077,0.004,0.0074,0.0073,0.0087,0.0086,0.0103,0.0103,0.0104,0.0104,0,0.0537,0.0559,0.0641,0.0706,0.073,0.0803,0.0919,0.0994,0.1018,0.112,0.1131,0.1061,0.0928,0.0711,0.0499,0.0322,0.0137,0.0061,0.0114,0.0083,-0.0033,-0.003,-0.0086,-0.0088,-0.009,-0.0091,-0.0093,0,0.0573,0.0616,0.0709,0.0772,0.0809,0.0914,0.0999,0.106,0.1157,0.1235,0.1302,0.1206,0.1139,0.0798,0.0478,0.0164,0.0127,-0.0015,-0.0055,-0.0022,-0.0052,-0.0047,-0.0042,-0.0034,-0.0035,-0.0036,-0.0036,0,0.0648,0.0677,0.0747,0.0871,0.0965,0.1095,0.1222,0.1312,0.1406,0.1472,0.1541,0.1488,0.1179,0.086,0.0427,0.0215,0.0031,-0.0037,-0.0005,0.0003,0.002,-0.0008,-0.0003,-0.0041,-0.004,-0.004,-0.004,-0.0039,0.0705,0.0777,0.0867,0.0988,0.1104,0.1261,0.1368,0.1499,0.1635,0.1729,0.1695,0.1613,0.128,0.071,0.0359,-0.0008,-0.0001,-0.0136,-0.0131,-0.0126,-0.0115,-0.0103,-0.0184,-0.0185,-0.0185,-0.0185,-0.0185,0,0.0782,0.0862,0.0983,0.1136,0.1271,0.1319,0.151,0.1602,0.174,0.1803,0.1821,0.1489,0.1143,0.0762,0.0218,-0.0115,-0.0126,-0.0217,-0.0151,-0.0145,-0.0139,-0.0127,-0.0201,-0.0202,-0.0202,-0.0203,0,0,0.083,0.0954,0.1018,0.1241,0.135,0.1525,0.1621,0.1732,0.1805,0.1818,0.177,0.169,0.1241,0.085,0.0412,0.0107,0.0054,0.0042,0.0088,0.0223,0.0233,-0.0063,-0.0033,0,0,0,0,0]}],[{"header":{"parameterUnit":"m.s-1","parameterCategory":2,"la1":30.2991,"la2":30.254,"lo1":-89.0895,"lo2":-89.0444,"dy":0.0017,"dx":0.0017,"nx":28,"ny":28,"refTime":"2025-09-14T09:00:00:Z","depth":"4","parameterNumber":2,"parameterNumberName":"U-component_of_CURRENTS"},"data":[0,0,0,0,0,0,0,0,0,0,0,0,0,0,0,0,0,0,0,0,0,0,0,0,0,0,0,0,0,0,0,0,0,0,0,0,0,0,0,0,0,0,0,0,0,0,0,0,0,0,0,0,0,0,0,0,0,0,0.1603,0.1604,0,0.1664,0.1664,0.1665,0.1718,0.1719,0.172,0.1721,0.1798,0.18,0.1801,0,0,0,0,0,0,0,0,0,0,0,0,0,0.1524,0.1525,0.1603,0.1604,0.1605,0.1664,0.1664,0.1665,0.1718,0.1719,0.172,0.1721,0.1798,0.1799,0.1801,0,0,0,0,0,0,0,0,0,0,0,0,0,0.1565,0.1525,0.1603,0.1642,0.1646,0.1664,0.1664,0.1665,0.1718,0.1719,0.1721,0.1722,0.1798,0.1799,0.1801,0.1783,0,0,0.1806,0.1807,0,0,0,0,0,0,0,0,0.1563,0.1567,0.1635,0.1639,0.1644,0.1688,0.1665,0.1706,0.1717,0.1686,0.1721,0.1723,0.1765,0.1769,0.1772,0.1786,0.179,0.1807,0.1808,0.1808,0.1809,0,0,0,0,0,0,0,0.156,0.1565,0.1623,0.1636,0.1642,0.1653,0.166,0.1673,0.1714,0.1689,0.1694,0.1707,0.1767,0.177,0.1774,0.1791,0.1806,0.1808,0.1809,0.181,0.1928,0.193,0,0,0,0,0,0,0.1559,0.1562,0.1621,0.1626,0.161,0.1654,0.1661,0.1669,0.1714,0.1723,0.1705,0.1709,0.1766,0.1772,0.1777,0.1875,0.1808,0.181,0.1811,0.1926,0.1929,0.1931,0,0,0,0,0,0,0.1557,0.1563,0.1619,0.1599,0.1607,0.1654,0.1662,0.167,0.1716,0.1726,0.1735,0.1749,0.1767,0.1775,0.1823,0.1874,0.1811,0.1812,0.1924,0.1927,0.193,0.1996,0,0,0,0,0,0,0.1554,0.1562,0.1584,0.1598,0.1608,0.1654,0.1662,0.167,0.172,0.1727,0.1765,0.1772,0.1769,0.1821,0.1825,0.1875,0.1814,0.1921,0.1925,0.1929,0.1991,0.2001,0.2009,0,0,0,0,0,0.1551,0.1568,0.1584,0.1593,0.1632,0.1655,0.1662,0.1697,0.1721,0.1743,0.1774,0.1773,0.1849,0.1823,0.1828,0.188,0.1919,0.1924,0.1929,0.1987,0.1999,0.2009,0,0,0,0,0,0,0.1543,0.1575,0.1594,0.1621,0.1651,0.1667,0.1696,0.1719,0.1759,0.1779,0.1788,0.1796,0.1863,0.186,0.1831,0.1928,0.1889,0.1895,0.1932,0.1943,0.1952,0.1957,0.1815,0,0,0,0,0,0.1552,0.1576,0.1605,0.163,0.165,0.1681,0.1704,0.1728,0.1758,0.1779,0.1807,0.1842,0.1878,0.1902,0.1926,0.1969,0.1971,0.201,0.2019,0.2027,0.2036,0.2077,0.209,0.1947,0.1947,0.1947,0,0,0.1555,0.1578,0.1593,0.1632,0.1659,0.1691,0.1699,0.1744,0.1782,0.1779,0.185,0.1876,0.1897,0.1953,0.1983,0.1961,0.207,0.2033,0.2039,0.2044,0.2083,0.2097,0.2109,0.195,0.1949,0.1949,0,0,0.1566,0.1599,0.1624,0.1652,0.1704,0.1722,0.1746,0.1787,0.1825,0.1883,0.19,0.1955,0.2006,0.2029,0.2048,0.2121,0.2119,0.2142,0.2192,0.2232,0.2243,0.2254,0.2276,0.2288,0.2145,0.2145,0.2145,0,0.1575,0.1603,0.1636,0.1668,0.1697,0.1742,0.1775,0.1815,0.1871,0.1906,0.1922,0.2024,0.2043,0.2109,0.2143,0.2143,0.216,0.2145,0.2243,0.2253,0.2262,0.2283,0.2295,0.2149,0.2148,0.2148,0.2148,0,0.1592,0.1633,0.1651,0.1707,0.1744,0.1778,0.1833,0.1887,0.1943,0.1982,0.2078,0.211,0.217,0.2194,0.2195,0.228,0.2268,0.2249,0.2211,0.2281,0.2298,0.2309,0.2154,0.2153,0.2152,0.2151,0,0,0.1567,0.1646,0.1659,0.1689,0.1766,0.179,0.187,0.1939,0.1996,0.2077,0.2155,0.2232,0.2265,0.2288,0.2305,0.2346,0.243,0.2337,0.2337,0.2352,0.2518,0.2367,0.2364,0.2434,0.2436,0.2438,0.2503,0,0.1574,0.1628,0.1673,0.1735,0.1766,0.1834,0.1896,0.1973,0.205,0.2137,0.2211,0.2296,0.2297,0.2346,0.2389,0.2431,0.2464,0.2414,0.2455,0.2456,0.2306,0.2374,0.2446,0.2511,0.2514,0.2516,0.2517,0,0.1574,0.1612,0.1665,0.1744,0.1766,0.1818,0.1922,0.1984,0.2113,0.2178,0.2281,0.2348,0.2454,0.2436,0.254,0.2514,0.2525,0.2542,0.2544,0.2386,0.2325,0.2428,0.2538,0.2536,0.2534,0.2533,0.2532,0,0.1521,0.1606,0.1644,0.167,0.1768,0.182,0.1886,0.2005,0.2073,0.2224,0.2302,0.2418,0.2504,0.2554,0.2616,0.2593,0.271,0.2669,0.2536,0.2525,0.2611,0.2599,0.2722,0.2722,0.2722,0.2722,0.2722,0,0.1486,0.1522,0.1629,0.1647,0.1707,0.1796,0.1884,0.1964,0.2105,0.219,0.2326,0.2412,0.2545,0.2633,0.2651,0.2638,0.2739,0.2557,0.2537,0.2637,0.2628,0.2619,0.2606,0.2724,0.2724,0.2723,0.2723,0,0.1404,0.1476,0.1524,0.1637,0.1682,0.1726,0.188,0.1943,0.2085,0.2208,0.2274,0.245,0.2559,0.2656,0.2745,0.2668,0.2677,0.2637,0.2755,0.2738,0.2453,0.2444,0.2486,0.2482,0.2478,0.2474,0.2472,0,0.1357,0.1376,0.1498,0.1537,0.1593,0.1689,0.1759,0.1916,0.1991,0.2208,0.2256,0.2434,0.2532,0.2542,0.2637,0.2659,0.2621,0.2593,0.2505,0.2455,0.2433,0.2429,0.2425,0.2465,0.2464,0.2463,0.2462,0,0.1259,0.1317,0.1353,0.1445,0.1526,0.1596,0.1716,0.1762,0.1944,0.2101,0.2199,0.2271,0.2381,0.2451,0.2491,0.2496,0.2598,0.2551,0.2557,0.2474,0.243,0.2411,0.2411,0.2448,0.245,0.2452,0.2452,0,0.1188,0.119,0.1265,0.1338,0.1428,0.1479,0.1554,0.1657,0.1753,0.1998,0.2027,0.2206,0.2364,0.2366,0.2406,0.2407,0.2355,0.2253,0.2274,0.229,0.2195,0.2109,0.2021,0,0,0,0,0,0.1107,0.1116,0.1163,0.1233,0.1317,0.1384,0.1515,0.1599,0.1792,0.1812,0.1915,0.2013,0.2087,0.2177,0.2136,0.2302,0.2353,0.2241,0.2243,0.2372,0.2388,0.2293,0,0,0,0,0,0,0.106,0.1087,0.1119,0.1139,0.1178,0.1259,0.1341,0.1465,0.1487,0.1687,0.1745,0.1888,0.1995,0.2103,0.2103,0.2126,0.2081,0.2353,0.2347,0.2363,0.2377,0.239,0.2298,0,0,0,0,0]},{"header":{"parameterUnit":"m.s-1","parameterCategory":2,"la1":30.2991,"la2":30.254,"lo1":-89.0895,"lo2":-89.0444,"dy":0.0017,"dx":0.0017,"nx":28,"ny":28,"refTime":"2025-09-14T09:00:00:Z","depth":"4","parameterNumber":3,"parameterNumberName":"V-component_of_CURRENTS"},"data":[0,0,0,0,0,0,0,0,0,0,0,0,0,0,0,0,0,0,0,0,0,0,0,0,0,0,0,0,0,0,0,0,0,0,0,0,0,0,0,0,0,0,0,0,0,0,0,0,0,0,0,0,0,0,0,0,0,0,0.0193,0.0193,0,0.0171,0.0171,0.0171,0.0158,0.0158,0.0158,0.0158,0.0124,0.0123,0.0123,0,0,0,0,0,0,0,0,0,0,0,0,0,0.0185,0.0186,0.0193,0.0193,0.0193,0.0171,0.0171,0.017,0.0158,0.0158,0.0158,0.0158,0.0125,0.0124,0.0123,0,0,0,0,0,0,0,0,0,0,0,0,0,0.0179,0.0186,0.0193,0.0184,0.0183,0.0171,0.0171,0.017,0.0158,0.0158,0.0158,0.0158,0.0125,0.0124,0.0122,0.0116,0,0,0.0119,0.0118,0,0,0,0,0,0,0,0,0.0179,0.0179,0.0185,0.0184,0.0183,0.0167,0.0156,0.0152,0.0158,0.0168,0.0158,0.0158,0.0137,0.0135,0.0132,0.0115,0.0113,0.0118,0.0118,0.0117,0.0117,0,0,0,0,0,0,0,0.018,0.018,0.0185,0.0185,0.0184,0.0167,0.0166,0.0155,0.0153,0.0167,0.0166,0.0163,0.0137,0.0133,0.0131,0.0113,0.0118,0.0117,0.0117,0.0116,0.0085,0.0085,0,0,0,0,0,0,0.0184,0.0181,0.0185,0.0184,0.0181,0.0167,0.0167,0.0173,0.0154,0.0151,0.0163,0.0163,0.0135,0.0132,0.0129,0.0128,0.0117,0.0116,0.0115,0.0085,0.0085,0.0085,0,0,0,0,0,0,0.0185,0.0186,0.0186,0.0181,0.018,0.0168,0.0174,0.0172,0.0173,0.0151,0.0148,0.0167,0.0135,0.0131,0.0122,0.0127,0.0115,0.0114,0.0085,0.0085,0.0085,0.0121,0,0,0,0,0,0,0.0185,0.0186,0.0192,0.0182,0.018,0.0188,0.0174,0.0172,0.0171,0.017,0.0153,0.0149,0.0135,0.0124,0.0121,0.0125,0.0113,0.0085,0.0085,0.0085,0.012,0.0122,0.0124,0,0,0,0,0,0.0185,0.0195,0.0193,0.0193,0.019,0.0188,0.0186,0.0177,0.0171,0.0176,0.016,0.015,0.012,0.0123,0.0119,0.0123,0.0085,0.0085,0.0085,0.0119,0.0122,0.0124,0,0,0,0,0,0,0.0192,0.0195,0.0192,0.0202,0.0198,0.0186,0.0189,0.0182,0.0173,0.0172,0.0151,0.0147,0.014,0.0125,0.0128,0.0112,0.01,0.0099,0.0128,0.013,0.0132,0.0148,0.0112,0,0,0,0,0,0.0197,0.0208,0.0204,0.0211,0.0213,0.0202,0.02,0.0194,0.0184,0.018,0.0168,0.0151,0.0136,0.0129,0.0115,0.0108,0.0079,0.0106,0.0108,0.011,0.012,0.0074,0.0073,0.0084,0.0084,0.0084,0,0,0.02,0.0204,0.0209,0.0214,0.0211,0.0219,0.0202,0.0203,0.0207,0.0177,0.0182,0.0161,0.0136,0.0128,0.0123,0.0116,0.0089,0.011,0.0112,0.012,0.0074,0.0072,0.0071,0.0084,0.0084,0.0084,0,0,0.0215,0.0219,0.0234,0.0236,0.0236,0.0232,0.0235,0.0229,0.0225,0.0222,0.02,0.0183,0.0165,0.0146,0.0133,0.0138,0.0103,0.0132,0.0155,0.0111,0.0109,0.0108,0.0062,0.0056,0.0131,0.0131,0.0131,0,0.0218,0.024,0.0237,0.0251,0.0258,0.0242,0.0259,0.0251,0.0241,0.024,0.0229,0.0197,0.0174,0.0158,0.0158,0.0144,0.0111,0.0149,0.0114,0.0112,0.011,0.0063,0.0056,0.0133,0.0133,0.0133,0.0132,0,0.0245,0.0262,0.0272,0.029,0.0295,0.0306,0.0299,0.0302,0.0294,0.0282,0.0269,0.0234,0.0216,0.02,0.0182,0.0159,0.0137,0.0123,0.011,0.0111,0.0061,0.0053,0.0135,0.0135,0.0134,0.0134,0,0,0.0258,0.0287,0.0291,0.0314,0.0318,0.0332,0.0338,0.0343,0.0353,0.0327,0.0332,0.0292,0.027,0.0254,0.0222,0.0182,0.0132,0.0151,0.0147,0.0109,0.0029,0.0021,0.0011,0.011,0.0109,0.0108,-0.0003,0,0.0283,0.0326,0.0329,0.0371,0.0397,0.039,0.0404,0.0402,0.0389,0.0388,0.034,0.0334,0.029,0.0285,0.0235,0.0166,0.0115,0.0164,0.003,0.0027,0.0023,0.0003,0.0105,-0.0009,-0.0011,-0.0012,-0.0013,0,0.0313,0.0342,0.0387,0.0433,0.0444,0.0464,0.0492,0.0503,0.0484,0.0469,0.0438,0.0403,0.0349,0.0313,0.0181,0.0214,0.0127,0.0063,0.0057,0.0035,0.0004,-0.001,-0.0028,-0.0027,-0.0025,-0.0024,-0.0024,0,0.0342,0.0388,0.0431,0.0444,0.0483,0.0509,0.0534,0.0532,0.0557,0.0526,0.0532,0.0449,0.0423,0.0305,0.0172,0.0175,0.0019,0.0004,-0.009,-0.0092,-0.0067,-0.0064,-0.0096,-0.0096,-0.0096,-0.0095,-0.0095,0,0.0374,0.0413,0.0456,0.0482,0.0549,0.056,0.0621,0.0621,0.0635,0.0665,0.0586,0.0577,0.042,0.0317,0.0184,0.0023,0.0021,-0.0088,-0.0121,-0.0051,-0.0045,-0.0073,-0.0069,-0.0099,-0.0098,-0.0098,-0.0097,0,0.0402,0.0423,0.0485,0.054,0.0567,0.0621,0.0702,0.0742,0.0737,0.0772,0.077,0.0673,0.053,0.0361,0.0161,0.0049,-0.0109,-0.0169,-0.0084,-0.011,-0.0195,-0.0188,-0.0281,-0.0282,-0.0283,-0.0284,-0.0284,0,0.0418,0.0451,0.0535,0.0587,0.062,0.0701,0.0761,0.0792,0.0833,0.0829,0.0846,0.0729,0.0639,0.0352,0.0159,-0.0107,-0.0144,-0.0232,-0.0212,-0.0191,-0.0214,-0.0205,-0.0197,-0.0286,-0.0286,-0.0287,-0.0287,0,0.0452,0.0482,0.0538,0.0643,0.072,0.0805,0.0889,0.0927,0.0957,0.0956,0.0908,0.0763,0.0594,0.036,0.0148,-0.0041,-0.0176,-0.0243,-0.0242,-0.0224,-0.0199,-0.0219,-0.0209,-0.029,-0.029,-0.029,-0.0289,0,0.048,0.0529,0.0605,0.07,0.0793,0.0875,0.0921,0.0968,0.1006,0.0996,0.0974,0.0791,0.0683,0.0393,0.02,0.001,-0.0037,-0.0096,-0.0103,-0.0102,-0.0018,0.0042,-0.0004,0,0,0,0,0,0.0502,0.0565,0.0659,0.0757,0.0846,0.0898,0.099,0.1023,0.1049,0.103,0.1007,0.085,0.0563,0.0433,0.0243,0.0168,-0.008,-0.0064,-0.0154,-0.031,-0.0306,-0.0239,0,0,0,0,0,0,0.0521,0.0607,0.0661,0.0777,0.0848,0.0946,0.1002,0.1027,0.1014,0.1011,0.0862,0.0796,0.0514,0.0671,0.0236,0.0177,0.0092,-0.0196,-0.02,-0.0312,-0.0309,-0.0305,-0.0235,0,0,0,0,0]}]]